Location: Brunnen
(48.6541°N, 10.9920°E)
Time: 06:14:46
(UTC+00:00)

Cosmos 1420 Rocket - Pass Details

Date: 01 June 2020
Orbit: 755 x 781 km, 74.0° (Epoch: 04 July)

Event Time Altitude Azimuth Distance (km) Brightness Sun altitude
Rises 19:53:23 0° 206° (SSW) 3,209 7.0 -6.2°
Reaches altitude 10° 19:55:45 10° 208° (SSW) 2,284 6.3 -6.5°
Maximum altitude 20:00:56 75° 294° (WNW) 789 4.3 -7.1°
Drops below altitude 10° 20:06:08 10° 20° (NNE) 2,292 6.8 -7.7°
Sets 20:08:31 0° 23° (NNE) 3,221 7.6 -7.9°
